TimeCDT,TemperatureF,Dew PointF,Humidity,Sea Level PressureIn,VisibilityMPH,Wind Direction,Wind SpeedMPH,Gust SpeedMPH,PrecipitationIn,Events,Conditions,WindDirDegrees,DateUTC
12:58 AM,66.0,64.0,93,29.97,10.0,NE,4.6,-,N/A,,Mostly Cloudy,50,2013-05-01 05:58:00
1:58 AM,66.9,63.0,87,29.95,10.0,East,3.5,-,N/A,,Partly Cloudy,100,2013-05-01 06:58:00
2:58 AM,66.9,64.0,90,29.93,10.0,ENE,3.5,-,N/A,,Overcast,60,2013-05-01 07:58:00
3:58 AM,68.0,64.0,87,29.94,10.0,East,5.8,-,N/A,,Overcast,80,2013-05-01 08:58:00
4:58 AM,68.0,64.9,90,29.96,6.0,ESE,3.5,-,0.02,,Overcast,110,2013-05-01 09:58:00
5:58 AM,66.9,64.9,93,29.97,7.0,East,6.9,-,0.05,,Overcast,90,2013-05-01 10:58:00
6:58 AM,66.9,64.0,90,29.99,9.0,East,6.9,-,0.03,,Overcast,80,2013-05-01 11:58:00
7:58 AM,66.9,64.0,90,30.00,10.0,East,6.9,-,N/A,,Mostly Cloudy,80,2013-05-01 12:58:00
8:58 AM,68.0,63.0,84,30.00,10.0,ENE,6.9,-,N/A,,Overcast,70,2013-05-01 13:58:00
9:58 AM,66.9,62.1,84,30.03,10.0,East,9.2,-,N/A,,Overcast,80,2013-05-01 14:58:00
10:58 AM,66.9,63.0,87,30.04,8.0,East,8.1,-,0.01,,Overcast,80,2013-05-01 15:58:00
11:58 AM,68.0,64.0,87,30.03,10.0,East,10.4,-,N/A,,Overcast,80,2013-05-01 16:58:00
12:58 PM,69.1,63.0,81,30.01,10.0,East,13.8,20.7,N/A,,Overcast,80,2013-05-01 17:58:00
1:58 PM,70.0,63.0,78,30.01,10.0,East,15.0,18.4,N/A,,Overcast,80,2013-05-01 18:58:00
2:30 PM,66.2,62.6,88,30.02,1.8,East,9.2,-,0.05,,Overcast,90,2013-05-01 19:30:00
2:49 PM,66.2,64.4,94,30.01,1.0,ENE,5.8,-,0.21,,Overcast,70,2013-05-01 19:49:00
2:58 PM,66.9,64.0,90,30.01,2.0,ENE,9.2,17.3,0.23,,Overcast,70,2013-05-01 19:58:00
3:03 PM,66.2,64.4,94,30.01,5.0,ENE,11.5,18.4,N/A,,Overcast,60,2013-05-01 20:03:00
3:10 PM,66.2,64.4,94,30.00,8.0,ENE,12.7,18.4,N/A,,Overcast,70,2013-05-01 20:10:00
3:58 PM,68.0,64.9,90,29.98,8.0,East,11.5,24.2,N/A,,Overcast,80,2013-05-01 20:58:00
4:18 PM,68.0,64.4,88,29.99,10.0,East,11.5,18.4,N/A,,Overcast,90,2013-05-01 21:18:00
4:55 PM,68.0,64.4,88,29.99,1.5,Variable,4.6,-,0.08,,Overcast,0,2013-05-01 21:55:00
4:58 PM,66.9,64.9,93,29.99,0.8,SE,4.6,-,0.16,,Overcast,130,2013-05-01 21:58:00
5:10 PM,66.2,64.4,94,29.99,1.0,East,9.2,-,0.14,,Overcast,80,2013-05-01 22:10:00
5:14 PM,66.2,64.4,94,29.99,0.8,ENE,10.4,-,0.18,,Overcast,70,2013-05-01 22:14:00
5:19 PM,66.2,64.4,94,29.99,1.2,East,9.2,-,0.19,,Overcast,80,2013-05-01 22:19:00
5:26 PM,66.2,64.4,94,29.99,2.5,East,9.2,-,0.20,,Overcast,80,2013-05-01 22:26:00
5:31 PM,66.2,64.4,94,30.00,3.0,East,6.9,-,0.20,,Overcast,100,2013-05-01 22:31:00
5:49 PM,66.2,64.4,94,30.00,4.0,East,4.6,-,0.20,,Overcast,90,2013-05-01 22:49:00
5:53 PM,66.2,64.4,94,30.00,5.0,East,6.9,-,0.20,,Overcast,90,2013-05-01 22:53:00
5:58 PM,66.9,64.9,93,29.99,5.0,East,5.8,-,0.20,,Overcast,90,2013-05-01 22:58:00
6:58 PM,66.9,64.9,93,29.99,8.0,East,6.9,-,0.01,,Overcast,80,2013-05-01 23:58:00
7:58 PM,66.9,64.0,90,30.00,10.0,East,11.5,-,N/A,,Overcast,80,2013-05-02 00:58:00
8:58 PM,66.0,63.0,90,30.01,10.0,East,9.2,-,0.03,,Overcast,80,2013-05-02 01:58:00
9:58 PM,66.0,63.0,90,30.02,10.0,East,11.5,-,N/A,,Overcast,80,2013-05-02 02:58:00
10:02 PM,66.2,62.6,88,30.03,10.0,East,10.4,18.4,N/A,,Overcast,80,2013-05-02 03:02:00
10:58 PM,66.0,62.1,87,30.02,10.0,East,9.2,-,N/A,,Overcast,80,2013-05-02 03:58:00
11:04 PM,66.2,62.6,88,30.02,10.0,East,10.4,-,N/A,,Overcast,90,2013-05-02 04:04:00
11:38 PM,66.2,62.6,88,30.03,10.0,East,9.2,19.6,N/A,,Overcast,100,2013-05-02 04:38:00
11:58 PM,66.0,62.1,87,30.02,10.0,East,11.5,19.6,N/A,,Overcast,100,2013-05-02 04:58:00